Location: ??????????
(54.8537°N, 38.8755°E)
Time: 10:57:25
(UTC+00:00)

S-56A Canister/Altair - All Passes

Search period start: 07 September 2024 00:00
Search period end: 17 September 2024 00:00
Orbit: 636 x 2488 km, 38.9° (Epoch: 06 September)

Date Brightness Start Highest point End Pass type
(mag) Time Alt. Az. Time Alt. Az. Time Alt. Az.
07 Sep - 00:43:19 10° WSW 00:51:19 19° SW 01:00:01 10° S visible
07 Sep - 18:00:29 10° SSW 18:06:37 22° SSE 18:14:30 10° ESE visible
07 Sep - 20:01:13 10° SW 20:09:32 34° S 20:20:43 10° ESE visible
07 Sep - 22:03:59 10° WSW 22:13:23 33° SSW 22:25:11 10° SE visible
08 Sep - 00:08:52 10° WSW 00:17:07 20° SW 00:26:21 10° S visible
08 Sep - 17:27:33 10° S 17:32:50 19° SE 17:39:27 10° ESE visible
08 Sep - 19:27:45 10° SW 19:35:27 32° SSE 19:45:57 10° ESE visible
08 Sep - 21:30:12 10° WSW 21:39:09 33° S 21:50:41 10° SE visible
08 Sep - 23:34:36 10° WSW 23:42:54 21° SSW 23:52:29 10° S visible
09 Sep - 16:54:50 10° S 16:59:07 16° SE 17:04:15 10° ESE visible
09 Sep - 18:54:21 10° SW 19:01:28 30° SSE 19:11:09 10° ESE visible
09 Sep - 20:56:29 10° WSW 21:04:57 33° S 21:16:07 10° SE visible
09 Sep - 23:00:28 10° WSW 23:08:42 23° SSW 23:18:28 10° SSE visible
10 Sep - 16:22:32 10° SSE 16:25:26 12° SE 16:28:45 10° ESE visible
10 Sep - 18:21:02 10° SW 18:27:32 27° SSE 18:36:20 10° ESE visible
10 Sep - 20:22:52 10° WSW 20:30:49 32° S 20:41:30 10° SE visible
10 Sep - 22:26:27 10° WSW 22:34:30 24° SSW 22:44:19 10° SSE visible
11 Sep - 17:47:47 10° SSW 17:53:41 25° SSE 18:01:31 10° ESE visible
11 Sep - 19:49:17 10° WSW 19:56:44 31° S 20:06:51 10° SE visible
11 Sep - 21:52:32 10° WSW 22:00:20 24° SSW 22:10:04 10° SSE visible
12 Sep - 00:00:51 10° SW 00:03:36 11° SW 00:06:28 10° SSW night (unlit)
12 Sep - 17:14:39 10° SSW 17:19:53 22° SSE 17:26:42 10° ESE visible
12 Sep - 19:15:47 10° SW 19:22:43 30° S 19:32:10 10° SE visible
12 Sep - 21:18:44 10° WSW 21:26:12 25° SSW 21:35:44 10° SSE visible
12 Sep - 23:25:33 10° WSW 23:29:31 12° SW 23:33:50 10° SSW night (unlit)
13 Sep - 16:41:37 10° SSW 16:46:09 19° SSE 16:51:51 10° ESE visible
13 Sep - 18:42:21 10° SW 18:48:45 29° S 18:57:30 10° ESE visible
13 Sep - 20:45:01 10° WSW 20:52:07 25° SSW 21:01:19 10° SSE visible
13 Sep - 22:50:51 10° WSW 22:55:27 13° SW 23:00:33 10° SSW night (unlit)
14 Sep - 16:08:45 10° S 16:12:28 16° SSE 16:16:57 10° ESE visible
14 Sep - 18:08:58 10° SW 18:14:51 27° S 18:22:49 10° ESE visible
14 Sep - 20:11:21 10° WSW 20:18:03 25° SSW 20:26:52 10° SE visible
14 Sep - 22:16:29 10° WSW 22:21:23 14° SSW 22:26:58 10° S night (unlit)
15 Sep - 15:36:09 10° S 15:38:50 13° SSE 15:41:53 10° ESE daylight
15 Sep - 17:35:39 10° SW 17:41:01 25° S 17:48:10 10° ESE visible
15 Sep - 19:37:46 10° WSW 19:44:04 25° S 19:52:23 10° SE visible
15 Sep - 21:42:19 10° WSW 21:47:20 15° SSW 21:53:09 10° S visible
16 Sep - 15:04:47 10° SSE 15:05:13 10° SE 15:05:40 10° SE daylight
16 Sep - 17:02:24 10° SW 17:07:14 22° SSE 17:13:32 10° ESE visible
16 Sep - 19:04:14 10° WSW 19:10:06 24° S 19:17:53 10° SE visible
16 Sep - 21:08:20 10° WSW 21:13:19 16° SSW 21:19:12 10° S visible
